User: anonymous   Login
Location: Unspecified
(0.0000°N, 0.0000°E)
Time: 02:31:09
(UTC+00:00)
Language:

TerraSAR-X - Orbit

View from above orbital plane
View from above orbital plane
View from above satellite
View from above satellite

Ground track
Ground track

The orbit data is extracted from the following two-line orbital elements,

1 31698U 07026A   24057.46104814  .00002603  00000-0  12707-3 0  9999
2 31698  97.4472  66.1992 0001915  97.8726 262.2726 15.19158592925436
Epoch (UTC): 26 February 2024 11:03:54
Eccentricity: 0.0001915
inclination: 97.4472°
perigee height: 507 km
apogee height: 510 km
right ascension of ascending node: 66.1992°
argument of perigee: 97.8726°
revolutions per day: 15.19158592
mean anomaly at epoch: 262.2726°
orbit number at epoch: 92543

The dashed part of the orbit path shows where the satellite is in the earth's shadow,  

DLR